Regional Weather Roundup
Issued by NWS

Home | Current Version | Previous Version | Text Only | Print | Product List | Glossary Off
Versions: 1 2 3 4 5 6 7 8 9 10 11 12 13 14 15 16 17 18 19 20 21 22 23 24 25 26 27 28 29 30 31 32 33 34 35 36 37 38 39 40 41 42 43 44 45 46 47 48 49 50

000
ASUS43 KMKX 221800
RWRWI

WISCONSIN REGIONAL WEATHER ROUNDUP
NATIONAL WEATHER SERVICE MILWAUKEE/SULLIVAN WI
1200 PM CST WED NOV 22 2017

NOTE: "FAIR" INDICATES FEW OR NO CLOUDS BELOW 12,000 FEET WITH NO
SIGNIFICANT WEATHER AND/OR OBSTRUCTIONS TO VISIBILITY.

WIZ001-002-006>008-014>016-023>028-221900-
NORTHWEST WISCONSIN

CITY           SKY/WX    TMP DP  RH WIND       PRES   REMARKS
SUPERIOR ARPT  CLOUDY    23  12  63 SW9       30.20F WCI  13
6HR MIN TEMP:  10; 6HR MAX TEMP:  23;

ASHLAND        CLOUDY    24  11  57 S13       30.21F WCI  12
6HR MIN TEMP:  13; 6HR MAX TEMP:  24;

HAYWARD        CLOUDY    22  11  62 S10       30.20F WCI  11
6HR MIN TEMP:  10; 6HR MAX TEMP:  22;

SIREN          CLOUDY    22  12  66 SW7       30.22F WCI  13
CUMBERLAND     MOSUNNY   21  12  68 S13       30.22F WCI   9
RICE LAKE      MOSUNNY   23  13  66 S9        30.25F WCI  13
CHETEK         MOSUNNY   22  12  65 S9        30.25F WCI  12
LADYSMITH      MOSUNNY   22  12  64 S10       30.24F WCI  11
EAU CLAIRE     CLOUDY    23  10  57 S8        30.25F WCI  14
6HR MIN TEMP:   9; 6HR MAX TEMP:  23;

MENOMONIE      CLOUDY    24  12  59 S9        30.27F WCI  15
NEW RICHMOND   CLOUDY    23  12  63 S10       30.24F WCI  12
OSCEOLA        MOSUNNY   23  14  66 S9        30.27F WCI  13
$$

WIZ003>005-009-010-017-018-221900-
NORTH CENTRAL WISCONSIN

CITY           SKY/WX    TMP DP  RH WIND       PRES   REMARKS
MANITOWISH WTR MOSUNNY   20  11  67 S8        30.17F WCI  11
ARBOR VITAE    CLOUDY    23  13  65 SW9       30.18F WCI  13
WOODRUFF       CLOUDY    23  13  65 SW9       30.18F WCI  13
RHINELANDER    CLOUDY    23  12  62 SW10      30.19F WCI  12
6HR MIN TEMP:  16; 6HR MAX TEMP:  23;

EAGLE RIVER    CLOUDY    22  11  63 SW8       30.17F WCI  12
6HR MIN TEMP:  17; 6HR MAX TEMP:  22;

LAND O LAKES   MOSUNNY   22  13  66 SW8       30.19F WCI  13
PHILLIPS       CLOUDY    21  10  63 SW8       30.18F WCI  12
6HR MIN TEMP:  11; 6HR MAX TEMP:  22;

TOMAHAWK       CLOUDY    24  11  58 SW5       30.21F WCI  18
MEDFORD        SUNNY     22  11  64 SW8       30.22F WCI  12
MERRILL        CLOUDY    25  12  56 SW9       30.22F WCI  16
6HR MIN TEMP:  11; 6HR MAX TEMP:  26;

$$

WIZ029-030-035-036-043>047-221900-
CENTRAL WISCONSIN

CITY           SKY/WX    TMP DP  RH WIND       PRES   REMARKS
WAUSAU         CLOUDY    25  12  58 S7        30.22F WCI  17
6HR MIN TEMP:  15; 6HR MAX TEMP:  25;

MOSINEE        SUNNY     25  12  58 SW8       30.25F WCI  16
MARSHFIELD     CLOUDY    25  11  55 S8        30.22F WCI  16
6HR MIN TEMP:  13; 6HR MAX TEMP:  25;

STEVENS POINT  SUNNY     24  10  56 S6        30.27F WCI  17
WAUPACA        SUNNY     30  12  47 W3        30.29F
WAUTOMA        SUNNY     27  13  55 SW6         N/A  WCI  20
6HR MIN TEMP:  10; 6HR MAX TEMP:  28;

WISC RAPIDS    SUNNY     26  13  57 SW8       30.27F WCI  18
6HR MIN TEMP:  11; 6HR MAX TEMP:  27;

CAMP DOUGLAS   PTSUNNY   28  12  50 CALM      30.27F
$$

WIZ011>013-019>022-031-037>040-048>050-221900-
NORTHEAST WISCONSIN

CITY           SKY/WX    TMP DP  RH WIND       PRES   REMARKS
ANTIGO         CLOUDY    24  12  61 W6        30.22F WCI  17
SHAWANO        SUNNY     30  13  48 W6        30.27F WCI  24
6HR MIN TEMP:  23; 6HR MAX TEMP:  31;

OCONTO         CLOUDY    29  13  52 SW7       30.28F WCI  22
STURGEON BAY   CLOUDY    27  16  63 SW6       30.27F WCI  20
6HR MIN TEMP:  25; 6HR MAX TEMP:  28; 6HR PCP: TRACE;

GREEN BAY      MOSUNNY   29  16  58 SW9       30.27F WCI  20
6HR MIN TEMP:  23; 6HR MAX TEMP:  30;

MANITOWOC      SUNNY     28  15  58 SW7       30.29F WCI  21
6HR MIN TEMP:  23; 6HR MAX TEMP:  29;

APPLETON       NOT AVBL
CLINTONVILLE   SUNNY     28  10  47 SW5       30.27F WCI  23
OSHKOSH        SUNNY     28  15  58 SW10      30.27F WCI  19
6HR MIN TEMP:  16; 6HR MAX TEMP:  28;

$$

WIZ032>034-041-042-053>061-221900-
SOUTHWEST WISCONSIN

CITY           SKY/WX    TMP DP  RH WIND       PRES   REMARKS
LA CROSSE      MOSUNNY   27  14  58 S7        30.30F WCI  19
6HR MIN TEMP:  15; 6HR MAX TEMP:  27;

SPARTA         SUNNY     26  14  59 S7        30.30F WCI  19
VIROQUA        MOSUNNY   26  17  68 S10       30.27F WCI  16
6HR MIN TEMP:  14; 6HR MAX TEMP:  26;

BOSCOBEL       SUNNY     30  14  51 SW7       30.32F WCI  23
6HR MIN TEMP:  14; 6HR MAX TEMP:  30;

PRAIRIE DU CHI SUNNY     28  13  55 S6        30.34F WCI  21
PLATTEVILLE    SUNNY     29  18  64 SW9       30.33F WCI  20
$$

WIZ056-057-062-063-064-067-068-221900-
SOUTH CENTRAL WISCONSIN

CITY           SKY/WX    TMP DP  RH WIND       PRES   REMARKS
REEDSBURG      SUNNY     27  13  56 SW9       30.30F WCI  17
BARABOO/DELLS  SUNNY     27  13  56 SW8       30.29F WCI  19
LONE ROCK      SUNNY     30  14  51 SW7       30.31F WCI  23
6HR MIN TEMP:  11; 6HR MAX TEMP:  30;

MINERAL POINT  SUNNY     30  18  59 SW8       30.30F WCI  23
MADISON        MOSUNNY   28  14  55 SW7       30.29F WCI  21
6HR MIN TEMP:  15; 6HR MAX TEMP:  28;

MIDDLETON      SUNNY     30  14  52 SW7       30.31F WCI  23
WATERTOWN      SUNNY     28  15  56 SW8       30.31F WCI  20
MONROE         SUNNY     28  14  54 SW8       30.32F WCI  20
JANESVILLE     SUNNY     30  16  55 W5        30.33F WCI  25
$$

WIZ051-052-058>065-066-070>072-221900-
SOUTHEAST WISCONSIN

CITY           SKY/WX    TMP DP  RH WIND       PRES   REMARKS
MILWAUKEE      MOSUNNY   31  15  52 SW12      30.32F WCI  22
6HR MIN TEMP:  21; 6HR MAX TEMP:  32;

WAUKESHA       SUNNY     28  14  54 W5        30.31F WCI  23
MILWAUKEE/TIMM SUNNY     30  10  43 W9        30.32F WCI  22
RACINE         SUNNY     31  16  54 SW8       30.34F WCI  23
6HR MIN TEMP:  19; 6HR MAX TEMP:  31;

BURLINGTON     SUNNY     33  20  60 W7        30.33F WCI  26
KENOSHA        SUNNY     31  15  52 W8        30.32F WCI  23
6HR MIN TEMP:  16; 6HR MAX TEMP:  31;

FOND DU LAC    SUNNY     28  13  53 SW10      30.28F WCI  19
6HR MIN TEMP:  15; 6HR MAX TEMP:  29; 6HR PCP: TRACE;

SHEBOYGAN      MIX PCPN  30  15  53 SW5       30.28F WCI  25
6HR MIN TEMP:  16; 6HR MAX TEMP:  30; 6HR PCP: TRACE;

WEST BEND      SUNNY     28  14  54 W5        30.29F WCI  23
JUNEAU         SUNNY     26  14  60 SW9       30.32F WCI  17
$$

LSZ147-162-221900-
LAKE SUPERIOR

STATION/POSITION TIME  TEMP    WIND        PRES    WAVE
                       AIR SEA DIR/SP/G            HT/PER
                 (UTC) (F)     (DEG/KT/KT) (MB)    (FT/S)
DEVILS ISLAND    1700   22     230/ 15/ 19 1024.2F
SAXON HARBOR     1740   23     180/  7/ 13 1022.4F
$$

LMZ867-665-643>646-221900-
LAKE MICHIGAN

STATION/POSITION TIME  TEMP    WIND        PRES    WAVE
                       AIR SEA DIR/SP/G            HT/PER
                 (UTC) (F)     (DEG/KT/KT) (MB)    (FT/S)
N MID LAKE BUOY  1650   31 47  220/  2/  6 1025.8F   2/ 4
NORTHPORT PIER   1740   29     190/  2/  4 1024.4F
KEWAUNEE LAKESHO 1730   27     230/  5/  9 1024.8F
SHEBOYGAN LAKESH 1700   27     200/  4/  6 1027.4F
PORT WASHINGTON  1730   30     260/  7/ 12 1027.4F
MILWAUKEE LAKESH 1730   29     220/  5/  6   N/A
S MID LAKE BUOY  1650   31 47  320/  2/  6 1027.7F   3/ 6
KENOSHA   LAKESH 1700   28     260/  5/  7 1027.4
$$

TC  - TEMPERATURE IN CELSIUS
VSB - VISIBILITY IN STATUTE MILES
WCI - WIND CHILL INDEX
HX  - HEAT INDEX





USA.gov is the U.S. government's official web portal to all federal, state and local government web resources and services.